Location: Hopville
(44.8032°N, 123.1329°W)
Time: 03:50:12
(UTC+00:00)

SMAP - Pass Details

Date: 24 January 2021
Orbit: 681 x 683 km, 98.1° (Epoch: 26 February)

Event Time Altitude Azimuth Distance (km) Brightness Sun altitude
Rises 14:30:47 0° 14° (NNE) 3,055 6.4 -12.3°
Reaches altitude 10° 14:33:02 10° 16° (NNE) 2,135 5.6 -11.9°
Maximum altitude 14:37:43 79° 102° (ESE) 700 3.2 -11.1°
Drops below altitude 10° 14:42:21 10° 190° (S) 2,118 5.7 -10.3°
Sets 14:44:35 0° 192° (SSW) 3,028 6.5 -9.9°
